{"data":{"norad_id":65657,"epoch":"2026-05-25T01:43:25.976352Z","epoch_age_seconds":71906,"freshness":"FRESH","line1":"1 65657U 25211F   26145.07182843  .00001045  00000+0  76440-4 0  9995","line2":"2 65657  97.4490 188.9667 0000381 176.4946 183.6284 15.05649157 38532","mean_motion":15.05649157,"eccentricity":3.81e-5,"inclination_deg":97.449,"raan_deg":188.9667,"arg_perigee_deg":176.4946,"mean_anomaly_deg":183.6284,"bstar":7.644e-5,"rev_number":3853,"period_min":95.639810463494,"perigee_km":549.24979636605,"apogee_km":549.77768335243,"semimajor_km":6927.6507398592,"source":"CELESTRAK","updated_at":"2026-05-25T13:38:20.888677Z"}}